TimeCST,TemperatureF,Dew PointF,Humidity,Sea Level PressureIn,VisibilityMPH,Wind Direction,Wind SpeedMPH,Gust SpeedMPH,PrecipitationIn,Events,Conditions,WindDirDegrees,DateUTC
12:15 AM,28.4,24.8,86,30.00,7.0,NE,3.5,-,N/A,,Overcast,50,2012-12-08 06:15:00
12:35 AM,28.4,24.8,86,30.00,7.0,NE,3.5,-,N/A,,Overcast,40,2012-12-08 06:35:00
12:54 AM,26.6,24.8,93,29.99,7.0,Calm,Calm,-,N/A,,Mostly Cloudy,0,2012-12-08 06:54:00
1:15 AM,26.6,23.0,86,29.99,5.0,Calm,Calm,-,N/A,,Mostly Cloudy,0,2012-12-08 07:15:00
1:35 AM,26.6,23.0,86,29.99,5.0,Calm,Calm,-,N/A,,Mostly Cloudy,0,2012-12-08 07:35:00
1:54 AM,26.6,23.0,86,29.99,5.0,Calm,Calm,-,N/A,,Overcast,0,2012-12-08 07:54:00
2:15 AM,26.6,24.8,93,29.99,5.0,Calm,Calm,-,N/A,,Overcast,0,2012-12-08 08:15:00
2:35 AM,28.4,24.8,86,30.00,7.0,Calm,Calm,-,N/A,,Overcast,0,2012-12-08 08:35:00
2:54 AM,26.6,24.8,93,30.00,7.0,Calm,Calm,-,N/A,,Overcast,0,2012-12-08 08:54:00
3:15 AM,28.4,24.8,86,30.00,5.0,NE,3.5,-,N/A,,Overcast,50,2012-12-08 09:15:00
3:35 AM,26.6,24.8,93,30.00,5.0,North,3.5,-,N/A,,Overcast,10,2012-12-08 09:35:00
3:55 AM,26.6,24.8,93,29.99,5.0,NE,3.5,-,N/A,,Overcast,40,2012-12-08 09:55:00
4:15 AM,26.6,24.8,93,29.99,5.0,ENE,3.5,-,N/A,,Overcast,60,2012-12-08 10:15:00
4:35 AM,26.6,23.0,86,29.98,7.0,ENE,4.6,-,N/A,,Overcast,60,2012-12-08 10:35:00
5:15 AM,26.6,24.8,93,29.98,5.0,Calm,Calm,-,N/A,,Overcast,0,2012-12-08 11:15:00
5:34 AM,26.6,24.8,93,29.99,5.0,Calm,Calm,-,N/A,,Overcast,0,2012-12-08 11:34:00
5:55 AM,28.4,24.8,86,29.98,5.0,ENE,3.5,-,N/A,,Overcast,70,2012-12-08 11:55:00
6:15 AM,28.4,26.6,93,29.97,4.0,East,5.8,-,N/A,,Overcast,80,2012-12-08 12:15:00
6:34 AM,28.4,26.6,93,29.97,3.0,East,5.8,-,N/A,,Overcast,90,2012-12-08 12:34:00
6:55 AM,28.4,26.6,93,29.97,2.5,ESE,5.8,-,N/A,,Overcast,110,2012-12-08 12:55:00
7:15 AM,28.4,26.6,93,29.98,1.2,SE,5.8,-,N/A,,Overcast,140,2012-12-08 13:15:00
7:34 AM,28.4,26.6,93,29.99,0.8,ESE,4.6,-,N/A,,Overcast,110,2012-12-08 13:34:00
7:55 AM,28.4,26.6,93,29.99,0.5,SE,5.8,-,N/A,Fog,Light Freezing Fog,130,2012-12-08 13:55:00
8:15 AM,28.4,26.6,93,29.99,0.5,SE,5.8,-,N/A,Fog,Light Freezing Fog,130,2012-12-08 14:15:00
8:35 AM,28.4,26.6,93,29.99,1.2,SE,6.9,-,N/A,,Overcast,130,2012-12-08 14:35:00
8:55 AM,28.4,26.6,93,29.99,1.5,SSE,4.6,-,N/A,,Overcast,160,2012-12-08 14:55:00
9:15 AM,28.4,28.4,100,30.00,3.0,SSE,8.1,-,N/A,,Overcast,160,2012-12-08 15:15:00
9:35 AM,30.2,28.4,93,29.99,5.0,SE,6.9,-,N/A,,Overcast,140,2012-12-08 15:35:00
9:54 AM,30.2,28.4,93,29.99,5.0,SSE,8.1,-,N/A,,Overcast,150,2012-12-08 15:54:00
10:15 AM,30.2,28.4,93,29.99,1.2,SSE,8.1,-,N/A,,Overcast,150,2012-12-08 16:15:00
10:35 AM,30.2,28.4,93,29.98,3.0,SSE,9.2,-,N/A,,Overcast,150,2012-12-08 16:35:00
10:55 AM,30.2,26.6,86,29.97,7.0,SE,12.7,-,N/A,,Overcast,130,2012-12-08 16:55:00
11:14 AM,30.2,26.6,86,29.97,7.0,SE,10.4,-,N/A,,Overcast,130,2012-12-08 17:14:00
11:34 AM,30.2,26.6,86,29.95,7.0,SSE,13.8,-,N/A,,Mostly Cloudy,150,2012-12-08 17:34:00
11:54 AM,32.0,26.6,80,29.94,7.0,SE,13.8,-,N/A,,Mostly Cloudy,130,2012-12-08 17:54:00
12:15 PM,32.0,26.6,80,29.93,10.0,SSE,9.2,-,N/A,,Mostly Cloudy,150,2012-12-08 18:15:00
12:35 PM,32.0,26.6,80,29.92,10.0,SE,12.7,-,N/A,,Mostly Cloudy,140,2012-12-08 18:35:00
12:55 PM,32.0,26.6,80,29.91,10.0,SE,11.5,-,N/A,,Scattered Clouds,140,2012-12-08 18:55:00
1:15 PM,32.0,28.4,87,29.90,10.0,SE,10.4,-,N/A,,Scattered Clouds,140,2012-12-08 19:15:00
1:34 PM,32.0,26.6,80,29.90,10.0,SE,11.5,-,N/A,,Scattered Clouds,140,2012-12-08 19:34:00
1:55 PM,32.0,28.4,87,29.90,10.0,SE,10.4,-,N/A,,Scattered Clouds,140,2012-12-08 19:55:00
2:15 PM,32.0,26.6,80,29.90,10.0,SSE,12.7,-,N/A,,Mostly Cloudy,160,2012-12-08 20:15:00
2:35 PM,32.0,26.6,80,29.89,10.0,SSE,12.7,-,N/A,,Mostly Cloudy,160,2012-12-08 20:35:00
2:55 PM,32.0,26.6,80,29.89,10.0,South,13.8,-,N/A,,Overcast,180,2012-12-08 20:55:00
3:14 PM,30.2,26.6,86,29.89,7.0,South,9.2,-,N/A,,Overcast,170,2012-12-08 21:14:00
3:35 PM,30.2,26.6,86,29.89,7.0,SSE,11.5,16.1,N/A,,Overcast,160,2012-12-08 21:35:00
3:55 PM,30.2,26.6,86,29.88,7.0,SSE,10.4,-,N/A,,Overcast,150,2012-12-08 21:55:00
4:15 PM,30.2,26.6,86,29.89,7.0,SSE,9.2,-,N/A,,Overcast,160,2012-12-08 22:15:00
4:35 PM,30.2,26.6,86,29.88,10.0,SSE,9.2,-,N/A,,Overcast,150,2012-12-08 22:35:00
4:55 PM,30.2,26.6,86,29.88,10.0,SE,8.1,-,N/A,,Overcast,140,2012-12-08 22:55:00
5:14 PM,30.2,26.6,86,29.88,10.0,SE,10.4,-,N/A,,Overcast,140,2012-12-08 23:14:00
5:35 PM,30.2,28.4,93,29.87,7.0,SE,9.2,-,N/A,,Overcast,130,2012-12-08 23:35:00
5:55 PM,32.0,28.4,87,29.86,7.0,SE,10.4,-,N/A,,Overcast,130,2012-12-08 23:55:00
6:14 PM,32.0,28.4,87,29.87,10.0,SE,10.4,-,N/A,,Overcast,130,2012-12-09 00:14:00
6:35 PM,32.0,28.4,87,29.85,7.0,SE,16.1,-,N/A,Snow,Light Snow,130,2012-12-09 00:35:00
6:55 PM,32.0,28.4,87,29.85,10.0,SE,12.7,-,N/A,,Overcast,130,2012-12-09 00:55:00
7:15 PM,32.0,28.4,87,29.85,4.0,SE,13.8,-,N/A,Snow,Light Snow,130,2012-12-09 01:15:00
7:35 PM,32.0,28.4,87,29.84,1.5,SE,15.0,21.9,N/A,Snow,Light Snow,140,2012-12-09 01:35:00
7:55 PM,32.0,28.4,87,29.83,1.5,SE,16.1,20.7,N/A,Snow,Light Snow,140,2012-12-09 01:55:00
8:15 PM,32.0,30.2,93,29.82,1.5,SE,16.1,21.9,N/A,Snow,Light Snow,140,2012-12-09 02:15:00
8:35 PM,32.0,30.2,93,29.81,3.0,SE,17.3,23.0,N/A,Snow,Light Snow,140,2012-12-09 02:35:00
9:15 PM,32.0,30.2,93,29.86,7.0,South,13.8,-,N/A,,Overcast,170,2012-12-09 03:15:00
9:35 PM,32.0,30.2,93,29.86,2.5,South,12.7,-,N/A,Snow,Light Snow,170,2012-12-09 03:35:00
9:55 PM,32.0,30.2,93,29.85,1.5,SSE,13.8,-,N/A,Snow,Light Snow,160,2012-12-09 03:55:00
10:15 PM,32.0,30.2,93,29.85,2.0,SSE,13.8,19.6,N/A,Snow,Light Snow,160,2012-12-09 04:15:00
10:35 PM,32.0,30.2,93,29.85,2.0,SSE,15.0,20.7,N/A,Snow,Light Snow,160,2012-12-09 04:35:00
10:55 PM,32.0,30.2,93,29.83,4.0,SSE,15.0,20.7,N/A,Snow,Light Snow,150,2012-12-09 04:55:00
11:15 PM,32.0,30.2,93,29.81,4.0,SSE,15.0,21.9,N/A,Snow,Light Snow,150,2012-12-09 05:15:00
11:35 PM,32.0,30.2,93,29.80,5.0,SSE,15.0,20.7,N/A,,Overcast,150,2012-12-09 05:35:00
11:55 PM,32.0,30.2,93,29.82,5.0,SSE,13.8,20.7,N/A,,Overcast,160,2012-12-09 05:55:00